Wetbulb
45.27 46.05 47.74 48.31 48.88 48.83 48.90 49.76 50.13 50.47 51.33 52.22 54.16 55.94 56.02 55.98 56.12 56.25 57.32 56.30 54.38 52.94
45.28 46.28 47.49 46.88 47.17 47.40 47.40 49.73 48.39 48.43 48.82 49.45 51.18 52.41 55.84 57.72 56.85 56.41 55.40 55.89 55.23 53.28
43.94 45.63 45.22 45.25 45.21 44.79 43.67 43.71 44.13 45.33 45.45 45.92 46.40 47.87 49.49 50.38 50.74 51.90 51.43 51.44 52.16 52.02
41.78 42.38 41.97 41.63 41.62 40.96 40.23 40.06 39.96 40.49 41.23 41.58 41.58 42.67 44.31 44.62 44.80 46.20 46.47 45.72 45.63 43.53
40.41 40.52 40.34 39.81 39.62 39.56 38.62 38.69 38.52 38.77 38.74 38.77 39.01 39.02 39.43 40.28 40.64 40.76 40.27 42.34 42.42 40.97
38.47 38.52 38.28 38.43 38.76 38.68 38.09 37.59 37.75 37.93 37.31 36.76 36.92 36.70 36.76 36.86 37.25 38.80 38.62 38.06 37.35 37.60
37.11 37.33 37.25 37.85 38.01 38.22 37.91 37.33 37.16 37.02 36.98 37.20 35.86 35.17 34.93 34.72 34.30 35.41 36.80 36.98 36.77 36.57
38.36 38.36 38.16 38.66 39.19 38.56 37.11 37.09 36.83 37.06 38.51 38.69 38.50 38.06 34.96 35.36 35.56 35.64 35.66 35.73 36.32 37.85
39.10 39.08 38.53 38.54 38.15 37.96 37.52 37.84 38.20 38.29 37.74 37.97 38.06 39.55 38.41 36.26 34.69 34.48 33.85 32.79 32.69 34.65
38.13 37.66 37.57 37.48 36.91 36.15 35.89 36.38 36.16 36.77 37.85 37.44 37.51 38.76 37.73 35.99 32.98 31.69 28.42 25.78 25.35 30.58
37.50 36.93 36.94 36.32 35.24 34.56 34.61 34.37 34.60 34.64 34.22 33.11 36.08 37.65 36.77 33.70 23.37 23.51 25.35 23.93 18.78 19.32
37.03 36.28 35.75 34.34 33.45 33.33 33.14 32.94 32.65 32.61 30.35 25.21 25.43 35.29 34.07 26.92 18.98 21.57 21.62 24.64 24.63 25.60
36.87 35.70 33.97 33.27 32.73 33.03 32.84 31.25 27.15 23.47 20.13 30.68 20.23 34.94 33.41 28.04 25.36 22.59 23.03 23.47 24.82 31.72
35.75 34.31 33.67 32.82 32.74 31.73 30.21 29.77 27.07 25.64 22.86 22.79 26.24 27.58 34.06 33.21 26.31 24.75 24.53 24.47 25.39 26.61
MSLP
1018.23 1018.13 1018.03 1017.95 1017.98 1018.01 1017.87 1017.68 1017.29 1017.04 1016.64 1016.32 1015.98 1015.59 1015.55 1015.76 1015.93 1016.09 1016.14 1016.27 1016.73 1016.94
1018.44 1018.22 1018.24 1018.22 1018.15 1018.13 1018.05 1017.71 1017.43 1017.11 1016.96 1016.69 1016.37 1016.11 1015.95 1015.90 1016.03 1016.22 1016.30 1016.10 1016.40 1016.76
1018.80 1018.60 1018.61 1018.46 1018.52 1018.41 1018.35 1018.16 1017.93 1017.69 1017.41 1017.19 1017.01 1016.82 1016.63 1016.61 1016.74 1016.77 1016.90 1016.85 1016.85 1017.06
1019.19 1019.15 1019.00 1018.99 1018.99 1018.93 1018.79 1018.74 1018.56 1018.34 1018.11 1017.90 1017.71 1017.52 1017.40 1017.48 1017.44 1017.50 1017.62 1017.61 1017.65 1018.05
1019.53 1019.48 1019.48 1019.46 1019.43 1019.35 1019.24 1019.19 1019.05 1018.85 1018.71 1018.55 1018.41 1018.32 1018.23 1018.22 1018.13 1018.13 1018.26 1018.27 1018.36 1018.53
1019.92 1019.91 1019.99 1019.92 1019.85 1019.68 1019.59 1019.62 1019.51 1019.34 1019.26 1019.21 1019.12 1018.96 1018.86 1018.79 1018.80 1018.75 1018.90 1019.22 1019.26 1019.15
1020.16 1020.23 1020.35 1020.26 1020.14 1020.12 1019.98 1019.99 1019.96 1020.03 1019.95 1019.86 1019.64 1019.52 1019.42 1019.45 1019.63 1019.82 1019.99 1019.98 1019.88 1019.76
1020.24 1020.37 1020.49 1020.53 1020.44 1020.38 1020.40 1020.52 1020.52 1020.55 1020.32 1020.22 1020.12 1020.08 1020.01 1020.05 1020.14 1020.45 1020.67 1020.68 1020.67 1020.51
1020.24 1020.40 1020.48 1020.49 1020.69 1020.71 1020.88 1020.87 1020.98 1020.91 1020.82 1020.66 1020.53 1020.63 1020.57 1020.55 1020.72 1020.97 1021.24 1021.45 1021.64 1021.48
1020.37 1020.48 1020.72 1020.74 1021.03 1021.15 1021.35 1021.31 1021.39 1021.34 1021.14 1021.13 1021.10 1021.10 1021.01 1021.21 1021.47 1021.66 1021.98 1022.16 1022.23 1022.15
1020.61 1020.91 1021.05 1021.23 1021.43 1021.48 1021.57 1021.84 1021.93 1021.97 1021.92 1021.80 1021.58 1021.40 1021.52 1021.87 1022.01 1022.24 1022.40 1022.38 1022.39 1022.34
1020.90 1021.24 1021.38 1021.65 1021.66 1021.79 1022.12 1022.32 1022.59 1022.51 1022.52 1022.37 1022.12 1021.83 1021.93 1022.21 1022.38 1022.68 1022.69 1022.62 1022.50 1022.29
1021.00 1021.42 1021.77 1021.93 1022.10 1022.28 1022.51 1022.87 1022.95 1022.89 1022.98 1022.83 1022.52 1021.96 1022.10 1022.39 1022.51 1022.80 1022.84 1022.79 1022.65 1022.34
1021.11 1021.49 1021.84 1022.31 1022.49 1022.74 1022.98 1023.22 1023.34 1023.27 1023.25 1023.04 1022.84 1022.33 1022.06 1022.18 1022.45 1022.79 1022.93 1022.92 1022.82 1022.69
Wind_Speed
4 1 1 1 1 1 2 2 4 5 5 6 6 4 1 1 2 4 5 6 5 4
5 3 2 3 2 2 3 4 5 5 5 5 6 6 4 3 3 1 2 2 3 3
5 5 4 5 5 5 5 5 6 6 6 6 6 6 6 5 5 5 5 4 5 4
5 5 5 5 5 4 5 5 5 5 6 6 7 7 6 6 6 6 5 6 6 6
5 5 5 5 5 4 5 5 5 5 6 6 7 7 6 6 5 6 6 6 6 5
4 5 5 5 5 5 5 5 6 6 7 7 6 6 6 7 7 9 9 7 6 6
4 5 4 4 5 5 5 6 6 6 5 5 7 7 7 8 8 9 9 8 7 6
4 4 4 5 6 6 6 6 5 6 8 7 8 6 8 9 9 9 8 8 8 10
4 4 5 5 5 6 6 6 6 7 9 7 8 14 14 10 7 8 7 7 7 7
4 5 5 5 5 6 5 6 6 6 7 7 8 14 15 14 7 7 6 5 4 5
4 4 5 5 6 5 5 5 4 5 6 6 7 13 13 13 5 5 5 5 3 3
4 4 4 5 5 5 4 4 4 4 6 6 5 10 10 8 4 4 4 3 3 2
5 4 4 5 5 3 3 4 3 4 4 5 3 7 7 5 3 4 3 3 4 7
6 6 6 4 3 4 5 3 2 2 2 3 3 4 5 6 3 2 1 2 3 3
Wind_Direction
6 358 19 67 71 14 348 315 336 339 349 352 352 348 321 228 236 219 215 192 211 201
358 8 70 55 55 54 16 355 0 358 358 4 9 5 357 42 51 331 265 217 215 216
15 44 47 47 46 58 35 19 12 11 15 17 17 14 27 37 18 45 33 25 22 15
27 41 50 53 41 43 55 30 28 23 29 29 26 18 41 49 42 59 47 31 56 50
48 44 48 45 38 37 57 40 37 35 43 37 32 27 34 47 47 59 55 39 48 39
63 56 49 44 37 42 54 48 42 44 45 40 37 40 41 46 43 51 50 40 41 26
80 74 60 49 44 44 47 52 47 42 48 54 49 45 48 51 52 52 52 49 44 34
122 107 102 78 66 62 54 55 56 58 61 61 61 61 65 71 72 69 58 44 36 38
108 98 92 89 84 75 65 60 59 62 73 61 64 70 77 75 74 65 56 48 30 23
104 98 93 91 90 82 70 69 54 49 57 59 68 70 72 78 71 74 67 64 49 43
108 110 108 101 98 83 67 59 56 54 48 45 59 68 77 82 73 74 65 55 51 51
124 124 116 111 96 81 78 70 56 44 45 41 8 77 81 82 64 59 38 37 14 69
136 132 121 112 105 91 79 73 72 55 29 39 4 71 73 78 71 57 35 19 14 4
136 129 118 111 112 118 125 112 89 83 4 21 9 353 55 76 71 61 20 18 357 341